• In Hungary
  • List of Countries
  • For 7 days
  • Water Temperature
  • Satellite Maps
  • Weather Map
  • News
  • Weather Widgets
  • user-avatar
    Login

    Hourly Weather Korçe

    Today, 22 October, Monday

    Time Temperature Precipitation Wind Pressure Humidity
    00:00 +9°C° 0 mm 2 mps 667 mmHg 86%
    01:00 +9°C° 0 mm 2 mps 666 mmHg 87%
    02:00 +8°C° 0 mm 2 mps 666 mmHg 88%
    03:00 +8°C° 0 mm 2 mps 666 mmHg 88%
    04:00 +8°C° 0 mm 2 mps 666 mmHg 88%
    05:00 +8°C° 0 mm 2 mps 666 mmHg 87%
    06:00 +8°C° 0 mm 2 mps 667 mmHg 86%
    07:00 +8°C° 0 mm 3 mps 667 mmHg 85%
    08:00 +10°C° 0 mm 3 mps 667 mmHg 78%
    09:00 +11°C° 0 mm 3 mps 667 mmHg 72%
    10:00 +12°C° 0 mm 3 mps 668 mmHg 65%
    11:00 +12°C° 0.1 mm 3 mps 667 mmHg 64%
    12:00 +12°C° 0.1 mm 3 mps 667 mmHg 64%
    13:00 +13°C° 0.1 mm 3 mps 667 mmHg 63%
    14:00 +12°C° 0.5 mm 3 mps 667 mmHg 68%
    15:00 +11°C° 0.5 mm 3 mps 666 mmHg 73%
    16:00 +10°C° 0.5 mm 3 mps 666 mmHg 78%
    17:00 +10°C° 1.3 mm 3 mps 666 mmHg 82%
    18:00 +9°C° 1.3 mm 2 mps 666 mmHg 85%
    19:00 +9°C° 1.3 mm 2 mps 666 mmHg 88%
    20:00 +9°C° 1.1 mm 2 mps 666 mmHg 88%
    21:00 +8°C° 1.1 mm 3 mps 666 mmHg 88%
    22:00 +8°C° 1.1 mm 3 mps 666 mmHg 87%
    23:00 +8°C° 0.4 mm 3 mps 666 mmHg 87%

    Tomorrow, 23 October, Tuesday

    Time Temperature Precipitation Wind Pressure Humidity
    00:00 +8°C° 0.4 mm 2 mps 666 mmHg 86%
    01:00 +8°C° 0.4 mm 2 mps 666 mmHg 86%
    02:00 +8°C° 0.2 mm 2 mps 666 mmHg 86%
    03:00 +8°C° 0.2 mm 2 mps 666 mmHg 85%
    04:00 +8°C° 0.2 mm 2 mps 666 mmHg 85%
    05:00 +8°C° 0.1 mm 2 mps 666 mmHg 85%
    06:00 +8°C° 0.1 mm 3 mps 666 mmHg 84%
    07:00 +8°C° 0.1 mm 3 mps 666 mmHg 83%
    08:00 +9°C° 0 mm 3 mps 667 mmHg 77%
    09:00 +11°C° 0 mm 3 mps 667 mmHg 70%
    10:00 +12°C° 0 mm 3 mps 668 mmHg 64%
    11:00 +13°C° 0 mm 3 mps 668 mmHg 61%
    12:00 +13°C° 0 mm 3 mps 668 mmHg 57%
    13:00 +15°C° 0 mm 2 mps 667 mmHg 54%
    14:00 +15°C° 0 mm 2 mps 667 mmHg 56%
    15:00 +14°C° 0 mm 2 mps 667 mmHg 58%
    16:00 +14°C° 0 mm 2 mps 667 mmHg 59%
    17:00 +13°C° 0 mm 2 mps 666 mmHg 64%
    18:00 +10°C° 0 mm 2 mps 666 mmHg 68%
    19:00 +9°C° 0 mm 2 mps 666 mmHg 72%
    20:00 +8°C° 0 mm 2 mps 666 mmHg 74%
    21:00 +8°C° 0 mm 2 mps 666 mmHg 75%
    22:00 +9°C° 0 mm 1 mps 666 mmHg 77%
    23:00 +8°C° 0 mm 1 mps 666 mmHg 77%

    Day after tomorrow, 24 October, Wednesday

    Time Temperature Precipitation Wind Pressure Humidity
    00:00 +8°C° 0 mm 1 mps 665 mmHg 78%
    01:00 +8°C° 0 mm 1 mps 665 mmHg 79%
    02:00 +8°C° 0 mm 1 mps 664 mmHg 79%
    03:00 +7°C° 0 mm 1 mps 664 mmHg 80%
    04:00 +7°C° 0 mm 1 mps 664 mmHg 80%
    05:00 +8°C° 0 mm 1 mps 664 mmHg 78%
    06:00 +8°C° 0 mm 1 mps 664 mmHg 77%
    07:00 +8°C° 0 mm 1 mps 664 mmHg 75%
    08:00 +10°C° 0 mm 1 mps 664 mmHg 67%
    09:00 +12°C° 0 mm 2 mps 665 mmHg 58%
    10:00 +14°C° 0 mm 2 mps 665 mmHg 50%
    11:00 +14°C° 0 mm 3 mps 665 mmHg 46%
    12:00 +16°C° 0 mm 3 mps 664 mmHg 43%
    13:00 +17°C° 0 mm 3 mps 664 mmHg 40%
    14:00 +16°C° 0 mm 3 mps 664 mmHg 44%
    15:00 +14°C° 0 mm 3 mps 663 mmHg 47%
    16:00 +13°C° 0 mm 3 mps 663 mmHg 51%
    17:00 +11°C° 0 mm 3 mps 663 mmHg 55%
    18:00 +10°C° 0 mm 2 mps 663 mmHg 59%
    19:00 +9°C° 0 mm 2 mps 663 mmHg 64%
    20:00 +8°C° 0 mm 2 mps 663 mmHg 65%
    21:00 +8°C° 0 mm 2 mps 663 mmHg 66%
    22:00 +8°C° 0 mm 2 mps 663 mmHg 67%
    23:00 +8°C° 0 mm 2 mps 663 mmHg 72%

    25 October, Thursday

    Time Temperature Precipitation Wind Pressure Humidity
    00:00 +7°C° 0 mm 2 mps 664 mmHg 76%
    01:00 +7°C° 0 mm 2 mps 664 mmHg 81%
    02:00 +7°C° 0 mm 2 mps 664 mmHg 84%
    03:00 +6°C° 0 mm 2 mps 664 mmHg 86%
    04:00 +6°C° 0 mm 2 mps 664 mmHg 89%
    05:00 +6°C° 0 mm 2 mps 665 mmHg 87%
    06:00 +6°C° 0 mm 2 mps 665 mmHg 86%
    07:00 +7°C° 0 mm 2 mps 666 mmHg 84%
    08:00 +8°C° 0 mm 2 mps 666 mmHg 71%
    09:00 +10°C° 0 mm 2 mps 667 mmHg 57%
    10:00 +13°C° 0 mm 2 mps 668 mmHg 44%
    11:00 +13°C° 0 mm 3 mps 668 mmHg 41%
    12:00 +13°C° 0 mm 3 mps 668 mmHg 38%
    13:00 +14°C° 0 mm 3 mps 668 mmHg 36%
    14:00 +13°C° 0 mm 3 mps 668 mmHg 38%
    15:00 +14°C° 0 mm 2 mps 668 mmHg 41%
    16:00 +13°C° 0 mm 2 mps 667 mmHg 44%
    17:00 +12°C° 0 mm 2 mps 667 mmHg 47%
    18:00 +10°C° 0 mm 1 mps 667 mmHg 50%
    19:00 +9°C° 0 mm 1 mps 667 mmHg 53%
    20:00 +9°C° 0 mm 1 mps 667 mmHg 53%
    21:00 +8°C° 0 mm 1 mps 667 mmHg 54%
    22:00 +8°C° 0 mm 1 mps 667 mmHg 54%
    23:00 +8°C° 0 mm 1 mps 667 mmHg 54%

    26 October, Friday

    Time Temperature Precipitation Wind Pressure Humidity
    00:00 +8°C° 0 mm 1 mps 667 mmHg 53%
    01:00 +8°C° 0 mm 1 mps 667 mmHg 53%
    02:00 +8°C° 0 mm 1 mps 667 mmHg 53%
    03:00 +8°C° 0 mm 1 mps 667 mmHg 53%
    04:00 +8°C° 0 mm 1 mps 667 mmHg 53%
    05:00 +8°C° 0 mm 1 mps 667 mmHg 54%
    06:00 +9°C° 0 mm 1 mps 667 mmHg 55%
    07:00 +9°C° 0 mm 1 mps 668 mmHg 56%
    08:00 +11°C° 0 mm 1 mps 668 mmHg 51%
    09:00 +13°C° 0 mm 2 mps 669 mmHg 47%
    10:00 +16°C° 0 mm 2 mps 670 mmHg 42%
    11:00 +16°C° 0 mm 2 mps 670 mmHg 42%
    12:00 +17°C° 0 mm 2 mps 670 mmHg 41%
    13:00 +18°C° 0 mm 2 mps 670 mmHg 40%
    14:00 +17°C° 0 mm 2 mps 669 mmHg 45%
    15:00 +16°C° 0 mm 2 mps 669 mmHg 50%
    16:00 +15°C° 0 mm 2 mps 669 mmHg 54%
    17:00 +14°C° 0 mm 2 mps 669 mmHg 62%
    18:00 +12°C° 0 mm 2 mps 668 mmHg 69%
    19:00 +10°C° 0 mm 2 mps 668 mmHg 77%
    20:00 +9°C° 0 mm 2 mps 668 mmHg 80%
    21:00 +9°C° 0 mm 2 mps 669 mmHg 83%
    22:00 +9°C° 0 mm 2 mps 669 mmHg 87%
    23:00 +8°C° 0 mm 2 mps 669 mmHg 86%

    27 October, Saturday

    Time Temperature Precipitation Wind Pressure Humidity
    00:00 +8°C° 0 mm 2 mps 668 mmHg 86%
    01:00 +8°C° 0 mm 2 mps 668 mmHg 85%
    02:00 +8°C° 0 mm 2 mps 668 mmHg 86%
    03:00 +8°C° 0 mm 2 mps 668 mmHg 87%
    04:00 +8°C° 0 mm 2 mps 668 mmHg 88%
    05:00 +8°C° 0 mm 3 mps 668 mmHg 88%
    06:00 +9°C° 0 mm 3 mps 668 mmHg 89%
    07:00 +9°C° 0 mm 3 mps 668 mmHg 89%
    08:00 +11°C° 0 mm 3 mps 669 mmHg 82%
    09:00 +13°C° 0 mm 3 mps 669 mmHg 74%
    10:00 +15°C° 0 mm 4 mps 669 mmHg 67%
    11:00 +15°C° 0 mm 4 mps 669 mmHg 64%
    12:00 +17°C° 0 mm 4 mps 669 mmHg 62%
    13:00 +18°C° 0 mm 4 mps 669 mmHg 59%
    14:00 +17°C° 0.1 mm 4 mps 668 mmHg 64%
    15:00 +15°C° 0.1 mm 4 mps 668 mmHg 69%
    16:00 +14°C° 0.1 mm 4 mps 668 mmHg 74%
    17:00 +13°C° 0.1 mm 4 mps 667 mmHg 80%
    18:00 +12°C° 0.1 mm 4 mps 667 mmHg 85%
    19:00 +11°C° 0.1 mm 4 mps 667 mmHg 90%
    20:00 +11°C° 0.1 mm 4 mps 667 mmHg 91%
    21:00 +11°C° 0.1 mm 4 mps 667 mmHg 91%
    22:00 +11°C° 0.1 mm 4 mps 668 mmHg 91%
    23:00 +10°C° 0.1 mm 4 mps 667 mmHg 92%

    28 October, Sunday

    Time Temperature Precipitation Wind Pressure Humidity
    00:00 +10°C° 0.1 mm 4 mps 667 mmHg 92%
    01:00 +10°C° 0.1 mm 4 mps 667 mmHg 92%
    02:00 +10°C° 0 mm 4 mps 667 mmHg 92%
    03:00 +10°C° 0 mm 3 mps 667 mmHg 92%
    04:00 +9°C° 0 mm 3 mps 667 mmHg 92%
    05:00 +9°C° 0 mm 3 mps 667 mmHg 90%
    06:00 +9°C° 0 mm 3 mps 667 mmHg 88%
    07:00 +8°C° 0 mm 4 mps 667 mmHg 86%
    08:00 +11°C° 0 mm 4 mps 668 mmHg 77%
    09:00 +12°C° 0 mm 4 mps 668 mmHg 67%
    10:00 +14°C° 0 mm 4 mps 669 mmHg 58%
    11:00 +14°C° 0 mm 4 mps 668 mmHg 57%
    12:00 +15°C° 0 mm 4 mps 668 mmHg 55%
    13:00 +15°C° 0 mm 5 mps 668 mmHg 54%
    14:00 +14°C° 0 mm 4 mps 668 mmHg 59%
    15:00 +14°C° 0 mm 4 mps 668 mmHg 64%
    16:00 +13°C° 0 mm 4 mps 667 mmHg 69%
    17:00 +12°C° 0 mm 4 mps 667 mmHg 73%
    18:00 +12°C° 0 mm 4 mps 667 mmHg 77%
    19:00 +11°C° 0 mm 4 mps 667 mmHg 82%
    20:00 +11°C° 0 mm 4 mps 667 mmHg 81%
    21:00 +11°C° 0 mm 4 mps 667 mmHg 81%
    22:00 +11°C° 0 mm 4 mps 667 mmHg 80%
    23:00 +11°C° 0 mm 3 mps 667 mmHg 80%
    Show more